Skip Page Navigation
NASA JPL Caltech
NASA Logo - Jet Propulsion Laboratory + View the NASA Portal
+ Near-Earth Object (NEO) Program
Search JPL
JPL Home Earth Solar System Stars & Galaxies Technology
JPL Solar System Dynamics
BODIES ORBITS EPHEMERIDES TOOLS PHYSICAL DATA DISCOVERY FAQ SITE MAP
JPL Small-Body Database Browser
Search: [ help ]  
(2008 UE7)
Classification: Apollo [NEO, PHA]          SPK-ID: 3433365
Ephemeris | Orbit Diagram | Orbital Elements | Physical Parameters | Close-Approach Data ]

[ hide orbit diagram ]
Orbit Diagram
Note: Make sure you have Java enabled on your browser to see the applet. This applet is provided as a 3D orbit visualization tool. The applet was implemented using 2-body methods, and hence should not be used for determining accurate long-term trajectories (over several years or decades) or planetary encounter circumstances. For accurate long-term ephemerides, please instead use our Horizons system.
Orbit Viewer

Additional Notes: the orbits shown in the applet are color coded. The planets are white lines, and the asteroid/comet is a blue line. The bright white line indicates the portion of the orbit that is above the ecliptic plane, and the darker portion is below the ecliptic plane. Likewise for the asteroid/comet orbit, the light blue indicates the portion above the ecliptic plane, and the dark blue the portion below the ecliptic plane.

Orbit Viewer applet originally written and kindly provided by Osamu Ajiki (AstroArts), and further modified by Ron Baalke (JPL).


Orbital Elements at Epoch 2456400.5 (2013-Apr-18.0) TDB
Reference: JPL 54 (heliocentric ecliptic J2000)
 Element Value Uncertainty (1-sigma)   Units 
e .448004095066414 1.1411e-07  
a 1.648490342682407 1.3121e-07 AU
q .9099599184832523 1.3807e-07 AU
i 3.951556656682587 5.6423e-06 deg
node 81.21457277781707 1.3196e-05 deg
peri 48.64562404808822 3.3511e-05 deg
M 2.102644947972808 9.1116e-05 deg
tp 2456395.984649361045
(2013-Apr-13.48464936)
0.00019513 JED
period 773.0864079505739
2.12
9.2298e-05
2.527e-07
d
yr
n .4656659285400553 5.5595e-08 deg/d
Q 2.387020766881561 1.8999e-07 AU
  Orbit Determination Parameters
   # obs. used (total)      516  
   # delay obs. used      1  
   # Doppler obs. used      1  
   data-arc span      705 days (1.93 yr)  
   first obs. used      2008-10-26  
   last obs. used      2010-10-01  
   planetary ephem.      DE405  
   SB-pert. ephem.      SB405-CPV-2  
   condition code      0  
   fit RMS      .37976  
   data source      ORB  
   producer      Otto Matic  
   solution date      2011-Sep-14 20:35:35  

Additional Information
 Earth MOID = .00881169 AU 
 T_jup = 4.160 
[ show covariance matrix ]

Ephemeris | Orbit Diagram | Orbital Elements | Physical Parameters | Close-Approach Data ]

Physical Parameter Table
Parameter Symbol Value Units Sigma Reference Notes
absolute magnitude H 20.381 mag .37375 54 autocmod 2.5a
rotation period rot_per 3.251 h n/a Asteroid Lightcurve DataBase (Rev. 2013-May-01) Result based on less than full coverage, so that the period may be wrong by 30 percent or so.
Published Reference List:
[Ye, Q.; Shi. L.; Lin, H.-C. (2009) Minor Planet Bul. 36, 180-181.]

[ show close-approach data ]
Ephemeris | Orbit Diagram | Orbital Elements | Physical Parameters | Close-Approach Data ]
ABOUT SSD CREDITS/AWARDS PRIVACY/COPYRIGHT GLOSSARY LINKS
FirstGov 2013-May-19 10:25 UT
(server date/time)  
NASA Home Page
Site Manager:   Donald K. Yeomans
Webmaster  Alan B. Chamberlin